Temperature
7 6 6 6 6 6 6 6 5 5 5 5 5 5 5 4 4 4 4 4 4 4 4 3 3 3 3 3 3 3 3 2 2 2 3 3 3 3 4 4 4 4 4
6 6 6 6 6 6 5 5 5 5 5 5 4 4 4 4 4 4 3 3 3 3 3 3 3 3 3 3 2 2 2 2 2 2 2 2 3 3 3 3 3 3 3
6 6 6 6 5 5 5 5 5 4 4 4 4 4 4 3 3 3 3 3 3 2 2 2 2 2 2 2 2 2 2 2 1 1 2 2 2 2 2 2 2 3 3
5 5 5 5 5 5 5 4 4 4 4 4 3 3 3 3 3 2 2 2 2 2 2 2 2 2 2 1 1 1 1 1 1 1 1 1 1 1 1 2 2 2 2
5 5 5 5 4 4 4 4 4 4 3 3 3 3 2 2 2 2 2 2 1 1 1 1 1 1 1 1 1 1 1 1 1 0 0 0 1 1 1 1 1 1 2
5 4 4 4 4 4 4 4 3 3 3 3 2 2 2 2 1 1 1 1 1 1 1 1 1 1 1 1 0 0 0 -0 -0 -0 -0 -0 -0 -0 -0 -0 -0 -0 0
4 4 4 4 3 3 3 3 3 3 2 2 2 2 1 1 1 1 1 1 1 0 0 0 0 0 0 0 -0 -0 -0 -0 -1 -1 -1 -1 -1 -1 -1 -1 -1 -1 -1
4 4 3 3 3 3 3 3 2 2 2 2 2 1 1 1 1 0 0 0 0 -0 -0 -0 -0 -0 -0 -1 -1 -1 -1 -1 -1 -1 -1 -1 -1 -1 -2 -2 -2 -2 -1
4 3 3 3 3 2 2 2 2 2 2 1 1 1 1 1 0 -0 -0 -0 -0 -0 -0 -1 -1 -1 -1 -1 -1 -1 -1 -1 -1 -1 -1 -2 -2 -2 -2 -2 -2 -2 -2
3 3 3 2 2 2 2 2 2 1 1 1 1 1 0 0 -0 -0 -1 -1 -1 -1 -1 -1 -1 -1 -1 -2 -2 -2 -2 -2 -2 -2 -2 -2 -2 -2 -2 -2 -3 -3 -3
3 2 2 2 2 1 1 1 1 1 1 1 0 0 -0 -0 -1 -1 -1 -1 -1 -2 -2 -2 -1 -2 -2 -2 -2 -2 -3 -3 -2 -2 -2 -2 -2 -2 -2 -3 -3 -3 -3
2 2 2 2 1 1 1 1 1 0 0 0 0 0 -0 -1 -1 -1 -2 -2 -2 -2 -2 -2 -2 -2 -2 -3 -3 -3 -3 -3 -3 -3 -3 -3 -3 -3 -3 -3 -3 -3 -3
2 2 2 1 1 1 1 0 0 0 -0 -0 -0 -0 -0 -1 -1 -2 -2 -2 -2 -2 -2 -3 -3 -3 -3 -3 -3 -3 -3 -4 -4 -4 -3 -3 -3 -3 -3 -4 -3 -3 -3
1 1 1 1 1 1 0 0 -0 -0 -0 -1 -1 -1 -1 -1 -1 -2 -2 -2 -3 -3 -3 -3 -3 -3 -3 -3 -3 -3 -4 -4 -4 -4 -4 -4 -4 -4 -4 -4 -4 -4 -4
1 1 1 0 0 0 0 -0 -0 -0 -1 -1 -1 -1 -2 -2 -2 -2 -3 -3 -3 -3 -3 -3 -3 -3 -3 -3 -3 -4 -4 -4 -4 -4 -4 -4 -5 -5 -5 -5 -5 -5 -5
1 0 0 0 -0 -0 -0 -0 -0 -1 -1 -1 -1 -2 -2 -2 -2 -3 -3 -3 -3 -3 -4 -4 -4 -4 -4 -4 -4 -4 -4 -4 -5 -5 -5 -5 -5 -5 -5 -5 -5 -5 -5
0 0 -0 -0 -0 -0 -1 -1 -1 -1 -1 -1 -1 -2 -2 -2 -3 -3 -3 -3 -3 -4 -4 -4 -4 -4 -4 -5 -5 -5 -5 -5 -5 -5 -5 -5 -6 -6 -6 -6 -6 -6 -6
-0 -0 -0 -0 -1 -1 -1 -1 -1 -1 -1 -1 -2 -2 -2 -2 -3 -3 -3 -4 -4 -4 -4 -4 -4 -5 -5 -5 -5 -5 -5 -5 -6 -6 -6 -6 -6 -6 -6 -6 -6 -6 -6
-0 -0 -1 -1 -1 -1 -1 -2 -2 -2 -2 -2 -2 -2 -2 -3 -3 -3 -4 -4 -4 -4 -4 -4 -5 -5 -5 -5 -5 -5 -6 -6 -6 -6 -6 -6 -6 -7 -7 -7 -7 -7 -7
-0 -1 -1 -1 -1 -1 -2 -2 -2 -2 -2 -2 -2 -3 -3 -3 -3 -4 -4 -4 -4 -4 -5 -5 -5 -5 -5 -5 -5 -6 -6 -6 -6 -6 -6 -7 -7 -7 -7 -7 -7 -7 -7
-1 -1 -1 -1 -1 -1 -2 -2 -2 -3 -3 -3 -3 -3 -4 -4 -4 -4 -4 -4 -5 -5 -5 -5 -5 -5 -5 -6 -6 -6 -6 -6 -6 -6 -7 -7 -7 -7 -7 -7 -7 -7 -7
-1 -1 -1 -1 -2 -2 -2 -2 -3 -3 -3 -3 -3 -3 -4 -4 -4 -4 -4 -4 -5 -5 -5 -5 -6 -6 -6 -6 -6 -6 -6 -6 -6 -7 -7 -7 -7 -7 -7 -7 -8 -8 -8
-1 -1 -1 -2 -2 -2 -2 -3 -3 -3 -3 -3 -4 -4 -4 -4 -4 -5 -5 -5 -5 -5 -5 -6 -6 -6 -6 -6 -6 -6 -6 -6 -7 -7 -7 -7 -7 -8 -8 -8 -8 -8 -8
-1 -2 -2 -2 -2 -2 -3 -3 -3 -3 -3 -4 -4 -4 -4 -4 -5 -5 -5 -5 -5 -5 -6 -6 -6 -6 -6 -6 -6 -6 -6 -7 -7 -7 -7 -7 -8 -8 -8 -8 -8 -8 -8
-2 -2 -2 -2 -2 -3 -3 -3 -3 -3 -4 -4 -4 -4 -5 -5 -5 -5 -5 -5 -5 -6 -6 -6 -6 -6 -6 -6 -6 -7 -7 -7 -7 -7 -7 -8 -8 -8 -8 -8 -8 -8 -8
-2 -2 -2 -2 -3 -3 -3 -3 -3 -4 -4 -4 -4 -5 -5 -5 -5 -5 -5 -5 -6 -6 -6 -6 -6 -6 -6 -6 -7 -7 -7 -7 -7 -7 -8 -8 -8 -8 -8 -8 -8 -8 -8
Wind_Speed
5 4 4 4 3 3 3 3 3 2 2 2 2 3 3 3 3 2 2 3 3 3 3 3 4 4 4 3 3 4 4 5 8 7 5 5 5 6 7 9 9 10 10
4 4 5 4 3 3 4 3 3 2 2 2 2 2 3 3 3 3 3 3 3 3 4 4 5 4 4 4 4 4 4 5 6 9 7 5 6 6 6 7 8 9 10
4 4 4 4 4 4 4 4 3 3 3 2 2 2 3 3 3 3 3 3 3 4 4 4 5 5 5 4 5 5 4 5 5 7 7 5 5 5 5 6 7 6 9
3 4 5 5 5 5 4 4 3 3 3 3 3 3 3 3 3 3 3 4 4 5 5 5 5 5 5 5 5 5 5 5 5 6 7 6 6 5 4 5 7 5 6
4 5 6 5 4 4 4 4 4 4 4 3 3 3 3 3 3 3 3 4 4 5 5 5 5 6 7 6 5 5 4 4 5 6 6 6 6 5 5 5 7 7 6
5 5 5 4 4 5 5 4 4 4 4 3 3 4 4 4 6 7 5 4 4 5 5 5 6 6 8 9 10 9 7 6 6 6 6 7 7 6 6 6 6 6 6
5 5 5 4 5 5 5 4 4 4 4 4 4 4 5 6 8 8 8 5 4 5 5 5 6 6 7 5 8 9 9 10 10 7 8 8 8 7 7 7 6 7 7
5 5 5 5 5 5 4 5 5 4 4 4 5 5 4 6 8 8 8 4 4 5 5 5 6 6 6 6 5 6 7 7 8 7 7 8 8 7 7 7 7 6 6
5 5 5 5 5 5 5 6 5 4 4 4 4 4 5 6 8 8 7 3 4 5 5 5 5 6 10 10 6 6 7 7 9 10 11 10 11 11 9 5 4 4 6
6 6 5 5 5 6 6 6 4 4 5 5 5 5 5 5 8 9 7 3 4 5 5 5 7 8 10 11 7 6 8 8 7 7 7 8 8 8 9 6 5 5 5
5 5 4 5 5 6 5 4 4 4 4 4 5 5 5 6 7 9 8 3 4 5 5 5 5 10 11 11 9 5 8 9 6 6 6 5 5 4 5 5 4 5 5
4 4 4 4 4 4 4 4 4 4 4 4 4 5 4 5 6 8 9 8 6 4 5 5 6 10 11 11 8 8 10 9 5 5 5 5 5 5 4 5 6 6 6
4 4 4 4 4 4 4 5 3 4 4 4 4 5 4 4 5 9 9 9 8 5 5 8 9 11 9 7 8 10 8 5 4 5 5 5 5 5 5 5 5 5 6
4 5 4 4 4 4 4 4 4 4 5 5 5 5 5 4 4 4 4 5 7 6 5 7 9 9 7 7 7 6 4 4 4 5 5 5 4 4 4 4 4 4 4
5 5 4 4 4 4 4 5 6 6 6 6 6 5 5 6 7 8 5 4 4 5 4 3 3 3 4 4 4 4 4 4 5 4 4 4 4 5 5 4 3 4 4
5 5 4 4 4 4 4 5 7 8 9 10 8 6 6 8 9 9 9 9 8 7 4 3 4 4 4 5 5 4 4 4 4 4 4 4 4 5 5 4 3 4 4
6 5 4 4 4 4 4 4 5 5 7 8 9 9 9 9 9 9 9 8 8 6 4 4 4 5 5 4 4 5 5 4 4 4 4 4 4 4 4 4 4 4 5
5 6 5 4 4 4 4 5 4 4 4 4 6 9 10 10 9 9 8 5 4 5 4 5 5 5 4 5 5 5 5 4 4 4 4 4 4 4 4 4 4 5 5
5 4 4 4 4 4 4 4 4 5 5 4 4 5 7 8 8 8 6 3 4 5 4 5 5 5 5 5 5 4 4 4 4 4 4 4 4 4 4 4 4 6 6
5 6 5 4 4 4 4 4 4 5 5 5 5 4 3 3 3 4 4 4 4 5 5 5 5 5 5 5 5 4 5 5 4 4 4 4 4 4 4 5 5 5 5
4 5 6 4 4 4 4 5 5 5 5 5 5 6 6 4 5 5 4 5 5 5 5 5 5 5 5 5 5 5 5 5 4 4 4 4 4 4 4 4 4 4 5
4 4 4 4 4 4 4 4 5 5 6 6 5 5 8 5 4 5 5 5 5 5 5 5 5 5 5 5 5 5 5 5 5 4 4 4 4 4 4 4 4 4 4
4 4 4 4 4 6 5 4 5 5 5 5 5 5 4 4 5 5 5 5 4 4 4 4 5 5 4 4 5 5 5 5 5 4 4 4 4 4 4 4 4 4 5
4 4 4 4 4 4 4 5 5 5 5 5 5 5 5 5 5 5 5 4 4 4 4 4 5 6 6 5 5 5 6 6 6 5 5 5 4 4 4 4 4 5 5
4 4 4 4 4 5 5 5 5 5 5 5 5 5 4 4 5 5 4 4 4 4 5 5 4 5 6 7 6 6 8 9 8 6 5 4 4 4 4 4 4 4 4
4 4 4 4 4 4 5 5 5 5 5 5 5 4 4 4 4 4 4 4 4 4 5 4 5 6 6 6 7 8 9 9 8 7 4 3 3 4 4 4 4 4 4
Wind_Direction
230 223 220 218 214 213 218 228 236 252 262 272 282 290 295 302 303 306 302 310 314 314 314 311 305 303 301 301 296 285 274 267 274 285 286 290 284 289 304 311 309 307 303
232 220 220 217 212 216 227 231 228 240 251 260 271 285 290 295 296 295 297 306 302 304 305 305 301 301 300 296 294 287 278 270 272 283 289 288 280 285 292 298 309 310 306
227 222 224 224 220 224 228 227 226 232 245 255 261 273 280 287 292 290 287 293 289 286 287 288 290 292 292 295 294 289 283 282 276 280 287 287 285 290 297 298 298 299 306
225 226 230 231 228 226 225 224 227 228 234 244 254 263 270 278 281 281 287 290 289 286 284 283 285 283 284 287 288 287 289 287 286 284 286 290 288 290 292 297 302 303 300
225 232 237 235 226 223 225 226 227 230 237 238 249 262 268 272 272 277 284 286 284 287 288 286 285 285 282 283 287 286 290 290 289 290 290 293 292 297 294 292 299 304 297
225 235 239 233 226 225 226 223 224 233 236 237 244 253 264 273 279 281 285 274 276 279 286 288 289 288 292 295 292 288 285 285 287 283 286 288 290 289 289 289 294 302 298
234 237 236 231 231 231 226 220 227 231 228 237 243 246 255 266 277 281 283 285 273 274 279 285 292 295 298 296 297 298 295 292 286 280 280 280 282 281 288 290 287 287 283
241 242 240 236 237 233 223 226 231 229 230 238 244 245 255 269 279 283 288 286 275 274 278 282 285 291 295 296 298 301 293 290 289 285 272 275 275 275 272 277 278 285 287
250 247 241 232 236 232 230 233 230 227 236 239 244 244 251 267 277 283 287 281 280 282 286 287 288 289 296 301 299 296 301 300 297 291 289 290 293 294 290 290 288 289 294
252 250 243 229 228 233 235 234 228 224 235 240 247 243 244 257 272 280 284 268 275 284 289 287 286 292 297 301 298 295 298 300 302 305 299 297 295 296 293 277 266 269 288
255 251 244 234 232 236 237 234 231 228 233 240 248 252 248 255 269 276 279 269 265 278 284 288 289 296 299 300 299 291 292 302 305 301 296 295 297 297 298 290 274 258 267
251 248 247 243 240 240 234 237 230 220 230 243 250 264 257 256 266 274 278 277 277 270 277 282 287 295 298 300 303 302 306 313 312 304 300 301 302 301 298 293 285 274 264
247 251 254 252 244 235 228 231 231 222 228 243 247 260 269 261 264 270 274 279 279 275 274 286 293 298 300 301 302 306 311 311 309 305 301 296 292 290 295 296 294 294 293
246 255 255 252 254 245 233 225 225 227 232 241 247 256 264 264 258 261 265 272 278 278 280 285 292 296 297 297 303 307 306 298 299 294 296 294 297 299 298 301 302 312 313
249 255 255 250 250 249 241 232 231 230 229 234 238 240 249 259 261 265 269 267 270 272 291 294 292 299 298 299 302 301 301 304 303 300 295 302 309 310 306 307 298 305 302
252 253 249 249 250 246 249 261 252 247 253 249 250 250 253 260 277 273 269 270 271 272 277 278 277 279 284 292 298 300 296 297 298 300 297 298 303 305 309 311 307 300 297
243 249 249 246 245 246 244 249 269 273 259 257 257 260 262 269 272 273 271 269 265 262 259 267 271 274 279 285 290 293 294 296 298 298 299 296 297 301 304 307 307 304 299
243 247 245 242 241 240 239 240 244 254 272 274 267 265 267 268 269 268 267 264 264 258 257 263 269 272 275 278 283 288 292 296 296 296 298 298 293 295 300 300 301 301 302
242 246 243 241 242 241 240 241 244 247 254 266 276 276 270 270 266 262 255 246 254 259 259 261 265 268 272 273 275 279 283 285 288 291 292 294 295 294 294 294 299 300 303
244 247 243 242 242 240 236 239 245 247 251 253 257 264 269 264 261 262 252 248 252 256 259 261 264 265 268 270 273 276 281 281 281 282 286 289 290 291 289 290 294 298 301
248 252 248 245 238 237 236 238 242 245 250 254 256 257 254 245 247 250 252 252 253 256 259 260 262 264 265 266 265 266 270 274 271 274 278 282 285 289 289 286 288 293 301
242 247 242 242 243 242 244 241 241 245 250 255 263 264 262 255 249 252 254 256 257 257 258 259 262 262 261 260 261 263 267 271 270 268 271 275 279 285 287 287 290 296 300
236 244 248 247 243 251 254 245 243 247 252 254 255 257 256 251 251 253 255 257 258 260 258 256 261 266 265 259 252 250 256 262 261 256 259 268 274 277 281 281 282 293 297
231 238 245 250 244 242 247 250 248 250 253 254 255 254 253 251 252 254 255 256 257 259 258 256 258 262 264 263 257 255 256 260 259 249 244 251 261 269 275 280 284 285 289
231 237 241 243 243 244 246 250 251 251 253 255 254 254 254 253 254 257 257 254 252 255 259 259 259 260 261 260 262 261 267 271 272 262 243 244 250 256 264 272 279 289 290
237 239 241 240 241 242 244 250 252 252 252 254 254 252 250 251 254 255 255 254 255 256 260 262 261 264 267 263 263 266 272 272 271 269 256 244 242 252 260 269 274 280 286
Height
1490 1490 1489 1489 1488 1487 1486 1485 1484 1483 1482 1480 1479 1478 1476 1475 1474 1473 1471 1470 1468 1467 1466 1464 1463 1462 1461 1459 1458 1456 1454 1453 1449 1446 1445 1444 1442 1441 1439 1438 1437 1435 1434
1486 1486 1485 1485 1484 1483 1483 1482 1481 1479 1478 1477 1476 1474 1473 1472 1470 1469 1468 1466 1465 1463 1462 1460 1459 1458 1456 1455 1453 1451 1449 1448 1446 1442 1440 1439 1437 1436 1434 1432 1431 1430 1428
1483 1482 1481 1481 1480 1479 1479 1478 1477 1476 1475 1473 1472 1471 1469 1468 1467 1465 1464 1463 1461 1459 1458 1457 1455 1454 1452 1450 1448 1446 1444 1443 1441 1438 1435 1434 1432 1430 1429 1427 1425 1424 1422
1479 1478 1477 1477 1476 1475 1475 1474 1473 1472 1471 1470 1469 1467 1466 1465 1463 1462 1460 1459 1457 1456 1454 1453 1451 1449 1448 1446 1444 1442 1440 1438 1436 1433 1431 1429 1427 1425 1423 1421 1419 1417 1416
1474 1473 1473 1472 1472 1471 1470 1470 1469 1468 1467 1466 1465 1464 1462 1461 1460 1458 1457 1455 1454 1452 1451 1449 1447 1445 1443 1441 1439 1437 1435 1433 1431 1429 1426 1424 1422 1420 1418 1416 1413 1411 1409
1470 1469 1469 1468 1467 1467 1466 1465 1465 1464 1463 1462 1461 1460 1459 1457 1456 1455 1453 1451 1450 1448 1446 1445 1443 1441 1439 1437 1435 1433 1431 1429 1426 1424 1422 1419 1417 1416 1413 1411 1409 1406 1403
1466 1465 1464 1464 1463 1462 1462 1461 1460 1459 1459 1458 1457 1456 1455 1454 1452 1451 1449 1448 1446 1444 1442 1440 1438 1436 1434 1432 1430 1428 1426 1424 1422 1420 1417 1415 1412 1411 1409 1406 1405 1402 1399
1462 1461 1460 1459 1458 1458 1457 1456 1456 1455 1454 1454 1453 1452 1451 1450 1448 1447 1445 1443 1441 1440 1438 1436 1434 1432 1430 1427 1425 1423 1421 1419 1417 1415 1412 1410 1408 1406 1404 1402 1400 1397 1395
1457 1456 1456 1455 1453 1453 1452 1452 1451 1451 1450 1449 1448 1448 1446 1445 1444 1442 1441 1438 1437 1435 1433 1432 1430 1427 1425 1423 1421 1418 1415 1413 1411 1409 1407 1404 1402 1401 1399 1397 1394 1392 1389
1453 1452 1451 1450 1449 1448 1448 1447 1447 1446 1445 1445 1444 1443 1442 1441 1440 1438 1436 1434 1432 1430 1429 1427 1425 1423 1421 1418 1416 1413 1410 1408 1405 1403 1401 1398 1397 1395 1394 1392 1390 1388 1385
1448 1447 1446 1445 1444 1444 1443 1442 1442 1441 1441 1440 1439 1439 1438 1436 1435 1433 1431 1430 1428 1426 1424 1422 1420 1418 1416 1414 1411 1409 1406 1404 1401 1398 1395 1393 1391 1390 1388 1387 1386 1384 1382
1443 1442 1441 1441 1440 1439 1438 1437 1437 1436 1435 1435 1434 1433 1433 1432 1430 1429 1427 1426 1424 1422 1419 1417 1415 1413 1411 1409 1407 1404 1402 1399 1396 1393 1390 1388 1386 1384 1383 1382 1381 1379 1378
1438 1437 1436 1436 1435 1434 1433 1432 1432 1431 1430 1429 1429 1428 1427 1427 1426 1424 1423 1421 1419 1417 1415 1413 1411 1409 1407 1404 1402 1400 1397 1394 1391 1388 1386 1384 1382 1380 1378 1377 1375 1374 1373
1433 1432 1431 1431 1430 1429 1428 1428 1427 1426 1425 1424 1423 1423 1422 1421 1420 1419 1417 1416 1414 1413 1411 1409 1407 1405 1402 1400 1398 1395 1393 1390 1388 1385 1382 1380 1378 1376 1374 1373 1371 1369 1367
1428 1427 1426 1426 1425 1424 1423 1423 1422 1421 1420 1420 1419 1418 1417 1416 1415 1415 1413 1411 1410 1408 1406 1404 1402 1400 1398 1396 1393 1391 1389 1386 1384 1381 1378 1376 1374 1372 1371 1369 1367 1365 1363
1423 1422 1421 1421 1420 1419 1418 1418 1417 1416 1415 1415 1414 1413 1412 1412 1411 1409 1408 1407 1405 1404 1402 1399 1398 1396 1394 1392 1389 1387 1385 1382 1380 1377 1375 1373 1371 1369 1367 1366 1364 1362 1360
1418 1417 1416 1416 1415 1414 1413 1412 1411 1411 1410 1410 1409 1408 1407 1406 1405 1404 1403 1402 1401 1399 1397 1395 1393 1391 1390 1388 1386 1383 1381 1379 1377 1374 1372 1370 1368 1366 1365 1363 1361 1359 1357
1413 1412 1411 1411 1410 1409 1408 1407 1406 1405 1405 1404 1404 1403 1402 1401 1400 1399 1398 1397 1395 1394 1392 1391 1389 1387 1386 1384 1382 1380 1378 1375 1373 1371 1369 1367 1365 1363 1362 1360 1358 1356 1354
1408 1407 1406 1406 1405 1404 1403 1402 1402 1401 1400 1399 1398 1398 1397 1396 1395 1394 1393 1392 1390 1389 1388 1386 1385 1383 1381 1380 1378 1376 1374 1372 1370 1368 1365 1364 1362 1360 1359 1357 1355 1354 1352
1403 1402 1402 1401 1400 1399 1398 1397 1397 1396 1395 1393 1393 1392 1392 1391 1389 1388 1388 1386 1385 1384 1383 1382 1380 1379 1377 1375 1374 1372 1370 1368 1366 1364 1362 1361 1359 1358 1356 1354 1353 1351 1349
1398 1397 1397 1396 1395 1394 1393 1392 1392 1391 1390 1388 1388 1387 1387 1385 1384 1383 1382 1381 1380 1379 1378 1377 1375 1374 1372 1371 1369 1368 1366 1365 1363 1361 1360 1358 1356 1355 1353 1352 1350 1349 1347
1393 1393 1392 1391 1390 1389 1388 1387 1387 1386 1385 1383 1383 1382 1382 1380 1379 1378 1377 1376 1375 1374 1373 1372 1371 1369 1368 1366 1365 1363 1362 1361 1359 1358 1357 1355 1354 1352 1351 1349 1347 1346 1344
1389 1388 1387 1386 1385 1385 1384 1383 1382 1381 1380 1379 1378 1377 1376 1375 1374 1373 1372 1371 1371 1370 1368 1367 1366 1365 1364 1362 1361 1360 1358 1357 1356 1355 1354 1352 1351 1349 1348 1346 1345 1344 1342
1384 1383 1382 1381 1380 1380 1379 1378 1377 1376 1375 1374 1373 1372 1371 1370 1369 1368 1367 1367 1366 1365 1364 1363 1361 1360 1359 1358 1357 1356 1355 1354 1353 1352 1351 1349 1348 1346 1345 1344 1343 1342 1340
1379 1378 1378 1377 1376 1375 1374 1373 1372 1371 1370 1369 1368 1367 1366 1365 1364 1364 1363 1362 1361 1360 1359 1358 1357 1356 1355 1354 1353 1352 1351 1350 1349 1348 1347 1346 1345 1344 1343 1342 1340 1339 1338
1374 1374 1373 1372 1371 1370 1369 1368 1367 1366 1365 1364 1363 1363 1362 1361 1360 1359 1358 1358 1357 1356 1355 1354 1353 1352 1351 1350 1349 1348 1347 1346 1346 1345 1344 1343 1342 1341 1340 1339 1338 1337 1336